[[{"header":{"parameterUnit":"m.s-1","parameterCategory":1,"la1":30.2991,"la2":30.254,"lo1":-89.0895,"lo2":-89.0444,"dy":0.0017,"dx":0.0017,"nx":28,"ny":28,"refTime":"2026-01-29T09:00:00:Z","depth":0,"parameterNumber":2,"parameterNumberName":"U-component_of_WINDS"},"data":[0,0,0,0,0,0,0,0,0,0,0,0,0,0,0,0,0,0,0,0,0,0,0,0,0,0,0,0,0,0,0,0,0,0,0,0,0,0,0,0,0,0,0,0,0,0,0,0,0,0,0,0,0,0,0,0,0,0,-0.3648,-0.3647,0,-0.3556,-0.3555,-0.3553,-0.3507,-0.3507,-0.3507,-0.3507,-0.3411,-0.3409,-0.3406,0,0,0,0,0,0,0,0,0,0,0,0,0,-0.3781,-0.3779,-0.3648,-0.3646,-0.3645,-0.3556,-0.3554,-0.3553,-0.3507,-0.3507,-0.3507,-0.3507,-0.3412,-0.3409,-0.3406,0,0,0,0,0,0,0,0,0,0,0,0,0,-0.371,-0.3778,-0.3648,-0.3611,-0.3607,-0.3556,-0.3554,-0.3553,-0.3507,-0.3507,-0.3507,-0.3507,-0.3413,-0.3409,-0.3406,-0.3383,0,0,-0.3394,-0.3393,0,0,0,0,0,0,0,0,-0.3714,-0.3705,-0.3618,-0.3614,-0.3609,-0.3543,-0.3567,-0.3496,-0.3507,-0.3545,-0.3507,-0.3507,-0.3455,-0.3448,-0.3431,-0.3379,-0.3375,-0.3394,-0.3392,-0.339,-0.3389,0,0,0,0,0,0,0,-0.3719,-0.3709,-0.3611,-0.3617,-0.3611,-0.3599,-0.3589,-0.3553,-0.3501,-0.3542,-0.3538,-0.3528,-0.3453,-0.3434,-0.3428,-0.3373,-0.3394,-0.3391,-0.3388,-0.3387,-0.3298,-0.3298,0,0,0,0,0,0,-0.373,-0.3713,-0.3614,-0.3608,-0.3662,-0.3597,-0.3585,-0.3564,-0.3502,-0.3492,-0.3528,-0.3526,-0.3441,-0.3432,-0.3424,-0.3393,-0.339,-0.3387,-0.3384,-0.3298,-0.3298,-0.3297,0,0,0,0,0,0,-0.3733,-0.3722,-0.3618,-0.366,-0.3646,-0.3594,-0.3571,-0.3562,-0.3544,-0.3491,-0.3482,-0.3519,-0.344,-0.343,-0.3394,-0.3389,-0.3385,-0.3381,-0.3298,-0.3298,-0.3298,-0.3332,0,0,0,0,0,0,-0.3737,-0.3723,-0.3714,-0.366,-0.3644,-0.3589,-0.3571,-0.356,-0.3538,-0.3534,-0.348,-0.3471,-0.344,-0.34,-0.339,-0.3384,-0.3378,-0.3298,-0.3298,-0.3298,-0.3331,-0.3333,-0.3334,0,0,0,0,0,-0.3742,-0.3728,-0.3714,-0.3703,-0.3632,-0.3589,-0.358,-0.3544,-0.3538,-0.3528,-0.3494,-0.3473,-0.3392,-0.3396,-0.3385,-0.3378,-0.3298,-0.3298,-0.3298,-0.333,-0.3332,-0.3334,0,0,0,0,0,0,-0.3783,-0.372,-0.3704,-0.3672,-0.3636,-0.3581,-0.3568,-0.3548,-0.3513,-0.3511,-0.3468,-0.3456,-0.3424,-0.3397,-0.3404,-0.3353,-0.3343,-0.334,-0.3371,-0.3373,-0.3375,-0.3381,-0.3375,0,0,0,0,0,-0.3788,-0.3759,-0.3705,-0.3682,-0.3665,-0.362,-0.36,-0.3576,-0.3537,-0.3521,-0.3485,-0.3447,-0.3413,-0.3392,-0.3357,-0.3327,-0.3314,-0.3316,-0.3318,-0.332,-0.3318,-0.3299,-0.3299,-0.3297,-0.3297,-0.3297,0,0,-0.3798,-0.376,-0.3745,-0.3689,-0.3659,-0.3629,-0.3608,-0.3577,-0.3555,-0.3516,-0.348,-0.3452,-0.3407,-0.3374,-0.3357,-0.3351,-0.3316,-0.332,-0.3321,-0.3318,-0.3299,-0.3299,-0.3299,-0.3297,-0.3297,-0.3297,0,0,-0.3802,-0.3771,-0.3747,-0.3717,-0.3671,-0.3641,-0.3636,-0.3584,-0.3564,-0.3527,-0.3497,-0.347,-0.3412,-0.3381,-0.3358,-0.335,-0.3329,-0.334,-0.3349,-0.3331,-0.3331,-0.3331,-0.3327,-0.3327,-0.3338,-0.3338,-0.3338,0,-0.382,-0.3775,-0.3738,-0.3709,-0.3685,-0.365,-0.3625,-0.3598,-0.3543,-0.3527,-0.3521,-0.3447,-0.3415,-0.3373,-0.3371,-0.3354,-0.3345,-0.3346,-0.3334,-0.3334,-0.3333,-0.3329,-0.3328,-0.334,-0.334,-0.334,-0.3339,0,-0.38,-0.3769,-0.3755,-0.3704,-0.3678,-0.3652,-0.361,-0.3589,-0.3566,-0.3537,-0.3499,-0.3459,-0.3416,-0.3404,-0.3382,-0.3359,-0.3356,-0.3343,-0.3332,-0.3336,-0.3331,-0.3329,-0.3342,-0.3342,-0.3341,-0.3341,0,0,-0.3826,-0.3754,-0.375,-0.3725,-0.3672,-0.3647,-0.3619,-0.3577,-0.3559,-0.3522,-0.3497,-0.3449,-0.3436,-0.341,-0.3384,-0.3368,-0.3363,-0.3356,-0.3354,-0.3358,-0.3334,-0.3344,-0.3343,-0.3349,-0.3348,-0.3348,-0.3337,0,-0.3822,-0.377,-0.3735,-0.3696,-0.3667,-0.3632,-0.3608,-0.3572,-0.3544,-0.3514,-0.3482,-0.3449,-0.3435,-0.3418,-0.3401,-0.3367,-0.3357,-0.3367,-0.3324,-0.3323,-0.3335,-0.334,-0.3351,-0.3343,-0.3335,-0.3335,-0.3335,0,-0.3809,-0.3774,-0.3733,-0.3682,-0.3668,-0.3647,-0.3605,-0.3577,-0.3536,-0.3516,-0.3487,-0.346,-0.3428,-0.3421,-0.3375,-0.3383,-0.3363,-0.3343,-0.3342,-0.3336,-0.3329,-0.3334,-0.3339,-0.3338,-0.3332,-0.3332,-0.3332,0,-0.3832,-0.3774,-0.3741,-0.3722,-0.3662,-0.3647,-0.3622,-0.358,-0.3557,-0.352,-0.3505,-0.3465,-0.3443,-0.3412,-0.3376,-0.3374,-0.3334,-0.3323,-0.3316,-0.3317,-0.3308,-0.3309,-0.331,-0.3297,-0.3297,-0.3297,-0.3297,0,-0.383,-0.3806,-0.375,-0.373,-0.3702,-0.3662,-0.3635,-0.3606,-0.357,-0.3543,-0.3511,-0.3486,-0.344,-0.3409,-0.338,-0.3346,-0.3337,-0.332,-0.3312,-0.3322,-0.3324,-0.3308,-0.3307,-0.3297,-0.3297,-0.3297,-0.3297,0,-0.385,-0.3812,-0.3774,-0.3721,-0.3707,-0.3688,-0.3642,-0.3621,-0.3591,-0.3557,-0.3547,-0.35,-0.3462,-0.3423,-0.3372,-0.3352,-0.332,-0.3309,-0.3334,-0.3329,-0.3324,-0.3325,-0.3314,-0.331,-0.3301,-0.3301,-0.3301,0,-0.3851,-0.3831,-0.3776,-0.3756,-0.3731,-0.3699,-0.3675,-0.3636,-0.3612,-0.3563,-0.3547,-0.3508,-0.3474,-0.3415,-0.3376,-0.3336,-0.3324,-0.3323,-0.3318,-0.3329,-0.3323,-0.3325,-0.3322,-0.3325,-0.3325,-0.3326,-0.3326,0,-0.3856,-0.3838,-0.3805,-0.3766,-0.3738,-0.3705,-0.367,-0.3656,-0.3609,-0.3584,-0.3545,-0.3519,-0.3467,-0.3427,-0.3383,-0.3356,-0.3333,-0.3328,-0.3324,-0.3334,-0.3348,-0.3339,-0.3338,-0.3328,-0.3328,-0.3328,-0.3328,-0.3327,-0.3866,-0.3847,-0.3805,-0.3769,-0.3739,-0.3707,-0.3685,-0.3652,-0.3619,-0.3574,-0.3552,-0.3513,-0.3472,-0.341,-0.3383,-0.3352,-0.3345,-0.334,-0.3338,-0.3337,-0.3339,-0.3354,-0.3344,-0.3344,-0.3344,-0.3343,-0.3343,0,-0.3869,-0.384,-0.3808,-0.376,-0.3732,-0.3714,-0.3674,-0.3652,-0.3618,-0.3581,-0.3549,-0.3504,-0.3465,-0.3423,-0.3382,-0.3365,-0.3353,-0.3355,-0.3356,-0.335,-0.3348,-0.3355,-0.3365,-0.3365,-0.3365,-0.3365,-0.3365,-0.3365,-0.3867,-0.3833,-0.3811,-0.3762,-0.3733,-0.3695,-0.3674,-0.3644,-0.3615,-0.3566,-0.3534,-0.3507,-0.3468,-0.3424,-0.3387,-0.3376,-0.3362,-0.3367,-0.3352,-0.3352,-0.335,-0.3348,-0.3355,-0.3364,-0.3364,-0.3356,-0.3356,-0.3356]},{"header":{"parameterUnit":"m.s-1","parameterCategory":1,"la1":30.2991,"la2":30.254,"lo1":-89.0895,"lo2":-89.0444,"dy":0.0017,"dx":0.0017,"nx":28,"ny":28,"refTime":"2026-01-29T09:00:00:Z","depth":0,"parameterNumber":3,"parameterNumberName":"V-component_of_WINDS"},"data":[0,0,0,0,0,0,0,0,0,0,0,0,0,0,0,0,0,0,0,0,0,0,0,0,0,0,0,0,0,0,0,0,0,0,0,0,0,0,0,0,0,0,0,0,0,0,0,0,0,0,0,0,0,0,0,0,0,0,-1.1654,-1.1656,0,-1.1808,-1.181,-1.1811,-1.1861,-1.1861,-1.186,-1.1859,-1.2017,-1.2022,-1.2027,0,0,0,0,0,0,0,0,0,0,0,0,0,-1.1403,-1.1408,-1.1654,-1.1656,-1.1658,-1.1808,-1.181,-1.1812,-1.1861,-1.1861,-1.186,-1.1859,-1.2016,-1.2021,-1.2027,0,0,0,0,0,0,0,0,0,0,0,0,0,-1.153,-1.1409,-1.1653,-1.17,-1.1706,-1.1807,-1.181,-1.1813,-1.1862,-1.1861,-1.186,-1.1859,-1.2014,-1.2021,-1.2028,-1.2094,0,0,-1.205,-1.2053,0,0,0,0,0,0,0,0,-1.1523,-1.1539,-1.1692,-1.1697,-1.1704,-1.1814,-1.1779,-1.1907,-1.1862,-1.1803,-1.1859,-1.1858,-1.1951,-1.1963,-1.1994,-1.2101,-1.2108,-1.2051,-1.2055,-1.2058,-1.206,0,0,0,0,0,0,0,-1.1514,-1.1533,-1.1715,-1.1694,-1.1701,-1.1714,-1.1731,-1.1804,-1.188,-1.1808,-1.1812,-1.1829,-1.1954,-1.1987,-1.1998,-1.211,-1.2051,-1.2057,-1.2062,-1.2064,-1.2279,-1.2281,0,0,0,0,0,0,-1.1497,-1.1525,-1.171,-1.1719,-1.1609,-1.1719,-1.1738,-1.178,-1.188,-1.1894,-1.183,-1.1831,-1.1975,-1.199,-1.2004,-1.2088,-1.2058,-1.2065,-1.2069,-1.2278,-1.228,-1.2281,0,0,0,0,0,0,-1.1492,-1.1513,-1.1704,-1.1624,-1.1649,-1.1725,-1.1771,-1.1784,-1.1817,-1.1897,-1.1911,-1.185,-1.1975,-1.1994,-1.2071,-1.2094,-1.2068,-1.2075,-1.2276,-1.2279,-1.228,-1.2255,0,0,0,0,0,0,-1.1484,-1.1511,-1.1536,-1.1624,-1.1653,-1.1768,-1.1773,-1.1787,-1.1829,-1.1832,-1.1919,-1.1932,-1.1975,-1.206,-1.2078,-1.2103,-1.2081,-1.2275,-1.2277,-1.228,-1.2254,-1.2256,-1.2258,0,0,0,0,0,-1.1475,-1.1523,-1.1537,-1.1559,-1.1686,-1.1769,-1.1786,-1.1834,-1.1831,-1.1857,-1.1909,-1.193,-1.2088,-1.2067,-1.2089,-1.2116,-1.2273,-1.2277,-1.228,-1.2254,-1.2256,-1.2258,0,0,0,0,0,0,-1.1436,-1.1535,-1.1552,-1.163,-1.1691,-1.1777,-1.1812,-1.1835,-1.1898,-1.1898,-1.1956,-1.1975,-1.2048,-1.209,-1.2065,-1.2185,-1.2182,-1.2189,-1.2155,-1.2158,-1.2159,-1.2148,-1.2087,0,0,0,0,0,-1.1436,-1.1495,-1.1579,-1.1639,-1.1669,-1.1735,-1.1773,-1.1805,-1.1871,-1.1897,-1.1954,-1.2016,-1.2081,-1.2122,-1.2185,-1.2261,-1.2281,-1.2291,-1.2292,-1.2293,-1.2299,-1.2342,-1.2348,-1.2291,-1.2291,-1.2291,0,0,-1.1438,-1.1499,-1.1533,-1.1633,-1.1684,-1.1744,-1.1756,-1.1819,-1.1864,-1.1906,-1.1983,-1.2027,-1.2101,-1.2178,-1.2215,-1.2215,-1.2319,-1.2297,-1.2297,-1.2302,-1.2346,-1.2351,-1.2356,-1.2293,-1.2293,-1.2292,0,0,-1.1471,-1.1523,-1.1579,-1.163,-1.1708,-1.1751,-1.1765,-1.1849,-1.1879,-1.1957,-1.199,-1.2045,-1.2154,-1.2206,-1.2246,-1.23,-1.2322,-1.2319,-1.2328,-1.237,-1.2374,-1.2378,-1.2398,-1.2404,-1.2325,-1.2324,-1.2324,0,-1.1463,-1.1554,-1.1605,-1.1667,-1.171,-1.1751,-1.1809,-1.1856,-1.195,-1.1979,-1.1978,-1.2117,-1.2169,-1.2259,-1.2272,-1.2304,-1.2321,-1.2309,-1.2369,-1.2374,-1.2379,-1.2398,-1.2405,-1.2324,-1.2324,-1.2324,-1.2324,0,-1.154,-1.1603,-1.164,-1.1729,-1.1777,-1.1836,-1.1896,-1.1938,-1.1967,-1.2011,-1.209,-1.2155,-1.2232,-1.2256,-1.2285,-1.2351,-1.2349,-1.2358,-1.2356,-1.2382,-1.2401,-1.2409,-1.2322,-1.2323,-1.2323,-1.2323,0,0,-1.1552,-1.167,-1.1682,-1.1724,-1.1813,-1.1862,-1.1924,-1.2,-1.2035,-1.2099,-1.2152,-1.2244,-1.2253,-1.2299,-1.2334,-1.2371,-1.2409,-1.2376,-1.2378,-1.238,-1.2487,-1.2479,-1.2486,-1.2425,-1.2426,-1.2428,-1.248,0,-1.1596,-1.1707,-1.1756,-1.1845,-1.1904,-1.1944,-1.1998,-1.2058,-1.2101,-1.2158,-1.2206,-1.227,-1.2278,-1.2306,-1.2344,-1.2396,-1.2432,-1.2393,-1.2475,-1.2477,-1.2454,-1.2496,-1.2488,-1.2534,-1.2488,-1.2489,-1.249,0,-1.1662,-1.1726,-1.1821,-1.1904,-1.193,-1.1977,-1.2051,-1.2105,-1.2175,-1.2204,-1.2255,-1.2289,-1.2355,-1.2349,-1.2441,-1.2414,-1.2451,-1.2481,-1.2485,-1.2494,-1.2485,-1.2506,-1.255,-1.2557,-1.2502,-1.2501,-1.2501,0,-1.1661,-1.1771,-1.1842,-1.1877,-1.1974,-1.2007,-1.2049,-1.2118,-1.2161,-1.2226,-1.2254,-1.2326,-1.2365,-1.242,-1.2472,-1.2463,-1.256,-1.2558,-1.2586,-1.2585,-1.2604,-1.2602,-1.2654,-1.2628,-1.2628,-1.2628,-1.2627,0,-1.1705,-1.1761,-1.1843,-1.1887,-1.1952,-1.2007,-1.207,-1.2115,-1.2176,-1.223,-1.227,-1.2319,-1.2385,-1.2443,-1.2484,-1.2555,-1.2572,-1.2598,-1.2608,-1.2594,-1.2591,-1.2618,-1.2616,-1.2629,-1.2629,-1.2629,-1.2628,0,-1.1714,-1.1771,-1.1851,-1.1938,-1.1961,-1.2005,-1.2079,-1.2123,-1.2169,-1.2236,-1.2255,-1.2326,-1.2397,-1.2454,-1.2547,-1.2575,-1.2648,-1.266,-1.2625,-1.263,-1.2655,-1.2651,-1.2726,-1.2739,-1.2704,-1.2704,-1.2704,0,-1.1738,-1.1782,-1.1874,-1.1912,-1.1954,-1.2016,-1.206,-1.2117,-1.2162,-1.2245,-1.2279,-1.2353,-1.2414,-1.2525,-1.2586,-1.2657,-1.2671,-1.2692,-1.2681,-1.2666,-1.2671,-1.2667,-1.2672,-1.2693,-1.2693,-1.2693,-1.2693,0,-1.1774,-1.1801,-1.1863,-1.1935,-1.1987,-1.2046,-1.2107,-1.2136,-1.2205,-1.2253,-1.2325,-1.2373,-1.2468,-1.254,-1.2618,-1.2662,-1.2689,-1.2696,-1.2706,-1.2692,-1.267,-1.2682,-1.2627,-1.2694,-1.2694,-1.2694,-1.2693,-1.2693,-1.1792,-1.1833,-1.1904,-1.1972,-1.2024,-1.208,-1.2126,-1.2178,-1.2239,-1.232,-1.2351,-1.2425,-1.2495,-1.2602,-1.2647,-1.2706,-1.2709,-1.2724,-1.2728,-1.273,-1.2728,-1.266,-1.2721,-1.2721,-1.2721,-1.2721,-1.2721,0,-1.183,-1.1878,-1.194,-1.2024,-1.2078,-1.2099,-1.2167,-1.2211,-1.2276,-1.2339,-1.2399,-1.2483,-1.2554,-1.262,-1.2694,-1.2729,-1.2743,-1.2747,-1.2744,-1.2754,-1.2722,-1.2705,-1.2734,-1.2734,-1.2734,-1.2734,-1.2734,-1.2734,-1.1856,-1.1928,-1.1963,-1.2061,-1.2109,-1.2182,-1.2219,-1.2272,-1.2322,-1.2414,-1.2473,-1.2516,-1.2581,-1.266,-1.2726,-1.2744,-1.2769,-1.2769,-1.279,-1.2758,-1.2756,-1.2754,-1.2739,-1.2774,-1.2774,-1.2818,-1.2818,-1.2818]}]]